SCP
0 0 0 0 0 0 0 0 0 0 0 0 0 0 0 0 0 0 0 0 0 0 0 0 0 0 0 0 0 0 0 0 0 0 0 0 0 0
0 0 0 0 0 0 0 0 0 0 0 0 0 0 0 0 0 0 0 0 0 0 0 0 0 0 0 0 0 0 0 0 0 0 0 0 0 0
0 0 0 0 0 0 0 0 0 0 0 0 0 0 0 0 0 0 0 0 0 0 0 0 0 0 0 0 0 0 0 0 0 0 0 0 0 0
0 0 0 0 0 0 0 0 0 0 0 0 0 0 0 0 0 0 0 0 0 0 0 0 0 0 0 0 0 0 0 0 0 0 0 0 0 0
0 0 0 0 0 0 0 0 0 0 0 0 0 0 0 0 0 0 0 0 0 0 0 0 0 0 0 0 0 0 0 0 0 0 0 0 0 0
0 0 0 0 0 0 0 0 0 0 0 0 0 0 0 0 0 0 0 0 0 0 0 0 0 0 0 0 0 0 0 0 0 0 0 0 0 0
0 0 0 0 0 0 0 0 0 0 0 0 0 0 0 0 0 0 0 0 0 0 0 0 0 0 0 0 0 0 0 0 0 0 0 0 0 -0
0 0 0 0 0 0 0 0 0 0 0 0 0 0 0 0 0 0 0 0 0 0 0 0 0 0 0 0 0 0 0 0 0 -0 -0 -0 -0 -0
0 0 0 0 0 0 0 0 0 0 0 0 0 0 0 0 0 0 0 0 0 0 0 0 0 0 0 0 0 0 0 0 0 0 0 0 0 0
0 0 0 0 0 0 0 0 0 0 0 0 0 0 0 0 0 0 0 0 0 0 0 0 0 0 0 0 0 0 0 0 0 0 0 0 0 0
0 0 0 0 0 0 0 0 0 0 0 0 0 0 0 0 -0 -0 -0 0 0 0 0 0 0 0 0 0 0 0 0 0 0 0 0 0 0 0
0 0 0 0 0 0 0 0 0 0 0 0 0 0 0 0 -0 -0 -0 -0 0 0 0 -0 -0 0 0 0 0 0 0 0 0 0 0 0 0 0
0 0 0 0 0 0 0 0 0 0 0 0 0 0 0 0 0 0 0 0 -0 0 -0 -0 -0 -0 0 0 0 0 0 0 0 0 0 0 0 0
0 0 0 0 0 0 0 0 0 0 0 0 0 0 0 0 0 0 0 -0 -0 -0 -0 -0 -0 -0 0 0 0 0 0 0 0 0 0 0 0 0
0 0 0 0 0 0 0 0 0 0 0 0 0 0 0 0 0 -0 -0 -0 -0 -0 -0 0 0 -0 0 0 0 0 0 0 0 0 0 0 0 0
0 0 0 0 0 0 0 0 0 0 0 0 0 0 0 -0 -0 -0 -0 -0 -0 -0 0 0 0 0 0 0 0 0 0 0 0 0 0 0 0 0
0 0 0 0 0 0 0 0 0 0 0 0 0 0 -0 -0 -0 -0 -0 -0 -0 0 0 0 0 0 0 0 0 0 0 0 0 0 0 0 0 0
0 0 0 0 0 0 0 0 0 -0 0 0 0 0 0 0 -0 0 0 0 0 0 0 0 0 0 0 0 0 0 0 0 0 0 0 0 0 0
0 0 0 0 0 0 0 0 0 0 0 0 0 0 0 0 0 0 0 0 0 0 0 0 0 0 0 0 0 0 0 0 0 0 0 0 0 0
0 0 0 0 0 0 0 0 0 0 0 0 0 0 0 0 0 0 0 0 0 0 0 0 0 0 0 0 0 0 0 0 0 0 0 0 0 0
0 0 0 0 0 0 0 0 0 0 0 0 0 0 0 0 0 0 0 0 0 0 0 0 0 0 0 0 0 0 0 0 0 0 0 0 0 0
0 0 0 0 0 0 0 0 0 0 0 0 0 0 0 0 0 0 0 0 0 0 0 0 0 0 0 0 0 0 0 0 0 0 0 0 0 0
0 0 0 0 0 0 0 0 0 0 0 0 0 0 0 0 0 0 0 0 0 0 0 0 0 0 0 0 0 0 0 0 0 0 0 0 0 0
Wind_Speed
3 3 4 3 4 4 4 4 4 4 3 3 2 3 4 4 7 7 7 12 12 11 11 10 10 10 9 9 9 8 8 8 8 7 6 5 4 3
1 2 3 3 3 3 4 3 3 3 3 2 3 4 5 6 8 7 8 11 11 10 10 10 10 9 9 9 8 8 8 7 6 5 4 4 3 3
1 1 2 2 2 2 2 2 3 3 4 3 4 6 7 7 6 5 6 5 7 10 9 8 8 8 7 7 7 6 6 5 5 4 4 4 4 4
1 1 1 1 1 1 2 3 3 4 7 9 6 6 7 7 7 6 5 5 5 9 8 7 6 6 6 6 6 5 4 4 4 5 5 5 6 7
2 2 2 1 1 2 3 4 4 5 7 9 8 6 5 6 7 7 6 4 5 7 7 7 6 6 5 5 5 5 5 5 5 5 6 7 8 8
4 4 3 2 2 4 4 6 6 7 8 9 8 7 6 6 5 6 5 4 4 4 5 5 6 7 7 6 7 7 7 7 7 8 8 8 9 9
6 6 6 7 6 5 5 7 8 8 8 8 8 7 7 6 6 5 6 5 4 3 4 4 5 5 7 9 9 9 9 9 9 9 10 10 10 10
7 7 7 9 11 11 11 10 8 8 9 8 8 8 8 7 5 5 5 5 4 3 3 3 3 3 4 5 7 8 9 9 9 10 10 11 11 11
7 6 7 8 9 11 12 12 11 9 6 5 9 8 8 6 5 5 4 3 3 3 2 2 3 3 3 4 9 8 8 9 10 11 11 12 12 12
8 8 8 9 9 9 11 11 10 8 5 5 7 6 6 5 4 4 5 5 4 3 2 2 2 3 2 3 10 9 9 10 11 12 12 13 13 13
9 9 9 10 8 6 10 11 10 8 10 11 10 9 8 4 1 2 4 3 4 4 2 2 1 2 3 4 7 12 12 12 12 13 13 13 13 12
8 9 12 10 8 5 8 9 10 9 8 9 8 7 7 5 1 1 1 1 2 2 3 2 2 2 2 3 3 5 8 12 15 15 14 14 12 10
7 7 8 9 9 8 6 8 7 6 7 7 7 6 5 4 4 2 1 2 2 1 2 2 2 2 3 3 3 4 4 4 6 9 13 15 14 12
7 7 7 8 9 9 8 6 2 1 5 5 5 5 4 4 3 2 2 2 2 2 2 3 3 3 4 5 4 4 4 5 6 6 6 7 13 16
7 9 7 6 7 8 6 1 1 3 4 4 4 4 3 3 1 2 2 2 3 3 2 3 5 4 6 6 6 5 6 6 6 6 7 7 7 8
6 6 4 3 4 5 4 2 2 4 3 3 3 3 2 2 1 1 1 2 3 3 4 5 5 6 7 7 7 7 7 6 6 7 7 8 9 9
2 4 4 5 5 4 3 3 3 3 2 2 2 1 1 1 1 1 2 3 3 2 2 3 5 6 7 8 8 8 7 7 7 7 8 10 10 10
2 3 3 3 3 3 3 3 2 2 2 1 1 0 0 1 1 1 2 3 3 3 4 4 4 5 7 7 7 8 8 8 8 8 10 11 11 10
2 3 2 2 2 2 2 2 2 2 1 0 0 1 1 2 2 3 3 3 4 4 4 5 5 6 8 8 5 5 7 9 9 10 10 10 12 11
2 2 2 2 1 1 1 1 1 1 1 1 1 1 2 3 3 3 3 4 5 5 6 6 6 6 7 9 10 9 9 10 9 10 11 11 12 12
2 2 1 1 1 1 1 1 1 1 1 2 2 3 3 4 4 4 4 3 6 7 7 6 5 4 7 9 10 10 9 8 9 9 12 13 13 13
1 1 1 1 1 2 2 2 3 3 3 3 3 3 4 4 5 6 6 6 6 7 7 7 7 7 8 10 11 12 11 10 10 15 17 16 13 13
2 2 2 3 3 3 3 3 3 3 3 3 4 4 5 5 5 6 6 7 7 7 8 8 8 8 9 10 11 11 14 14 12 11 11 11 17 22
Wind_Direction
270 259 257 253 245 237 231 227 216 194 171 147 123 104 99 94 97 96 97 102 103 102 102 105 108 111 114 115 121 127 130 128 132 134 137 143 148 159
285 280 267 261 250 241 230 224 219 197 151 126 118 118 111 105 101 96 99 105 103 103 101 103 106 108 114 121 127 129 131 133 141 149 162 171 189 209
310 277 274 276 261 240 212 199 187 159 139 117 106 115 114 113 110 100 103 104 109 109 109 111 115 121 124 130 132 135 138 149 165 178 195 209 225 238
14 1 339 282 250 215 162 155 152 149 141 131 124 120 114 117 111 107 108 111 113 114 113 118 129 135 137 143 146 153 162 179 196 212 223 231 240 248
41 38 28 42 106 113 124 127 128 126 126 128 124 119 113 118 118 112 112 115 125 131 138 148 151 150 157 169 176 185 195 208 220 228 236 242 245 251
55 49 48 65 94 113 114 119 120 119 121 122 121 121 121 126 129 132 131 140 141 148 144 155 160 176 187 194 200 208 215 223 230 236 242 247 250 252
67 64 64 66 61 80 107 119 125 125 125 124 126 129 132 143 143 145 136 140 142 158 160 173 176 189 188 201 210 216 223 229 234 239 244 248 251 253
80 83 87 85 80 80 82 88 104 124 129 131 134 136 141 145 144 151 147 151 149 162 185 180 188 190 194 192 176 196 219 230 236 241 246 249 250 252
78 82 86 92 100 103 98 94 85 81 101 125 129 135 139 146 151 148 146 145 118 140 192 175 181 196 209 158 164 199 220 232 240 244 248 250 251 253
74 77 85 90 90 104 107 103 100 91 88 97 107 117 123 132 149 145 145 151 154 153 198 214 184 208 213 189 177 205 223 236 243 246 248 250 251 253
71 69 81 89 67 85 106 105 101 97 81 79 82 89 91 92 55 169 160 168 153 147 180 261 237 231 230 221 186 198 220 231 239 243 246 249 251 254
82 77 64 69 57 58 106 110 109 109 114 115 113 124 127 126 149 282 208 182 159 151 148 253 259 261 253 225 230 209 221 223 228 235 239 243 243 251
89 84 73 59 59 52 73 91 97 114 125 128 129 131 136 143 154 140 352 332 350 62 128 244 279 283 287 283 267 260 263 260 238 235 230 232 230 234
85 88 85 75 70 64 75 77 73 147 123 121 119 120 123 119 107 93 51 3 342 337 327 307 295 301 297 293 291 282 275 272 271 273 273 229 225 231
76 76 91 111 114 100 94 85 221 129 109 110 107 102 93 84 116 161 180 210 232 236 236 266 280 287 289 291 295 297 294 287 280 281 281 279 275 264
112 118 123 90 97 101 134 153 103 67 64 88 93 101 114 152 197 203 224 224 233 209 203 228 252 273 279 288 291 292 292 292 289 284 288 287 280 274
121 145 142 137 134 126 116 105 117 134 128 115 122 149 168 190 196 226 280 274 273 277 252 221 222 236 258 273 281 285 291 292 291 295 288 284 281 278
293 136 129 125 120 119 126 134 139 122 111 118 140 186 244 266 257 247 256 275 289 291 294 297 290 279 267 251 242 272 284 291 295 293 288 286 287 286
232 126 118 114 116 122 123 117 106 96 59 286 258 270 275 277 274 275 282 289 292 295 295 292 288 288 293 298 286 248 286 294 292 289 287 289 291 293
179 132 136 139 148 149 139 125 138 172 209 246 260 273 281 284 286 285 286 295 300 299 293 289 288 298 307 307 305 295 264 273 284 290 293 293 289 284
147 143 151 171 193 213 234 227 250 259 275 283 277 277 279 282 286 288 290 285 275 279 286 293 310 284 281 279 280 284 288 263 256 270 285 289 290 292
193 195 197 230 234 235 227 224 226 232 237 248 259 268 273 281 284 284 289 289 286 290 296 296 289 278 278 282 288 293 295 294 274 246 244 255 276 288
218 234 228 223 224 229 242 247 253 254 257 267 272 274 277 279 283 283 281 283 289 294 295 295 294 291 292 292 292 294 296 298 297 295 284 257 239 247